TimeEDT,TemperatureF,Dew PointF,Humidity,Sea Level PressureIn,VisibilityMPH,Wind Direction,Wind SpeedMPH,Gust SpeedMPH,PrecipitationIn,Events,Conditions,WindDirDegrees,DateUTC
12:53 AM,42.1,28.0,58,29.75,10.0,WNW,8.1,-,N/A,,Overcast,290,2012-10-31 04:53:00
1:53 AM,39.9,27.0,60,29.75,10.0,WNW,6.9,-,N/A,,Clear,300,2012-10-31 05:53:00
2:53 AM,39.0,27.0,62,29.76,10.0,WNW,9.2,-,N/A,,Partly Cloudy,290,2012-10-31 06:53:00
3:53 AM,39.0,26.1,60,29.77,10.0,WNW,8.1,-,N/A,,Mostly Cloudy,290,2012-10-31 07:53:00
4:53 AM,37.9,26.1,62,29.77,10.0,WNW,8.1,-,N/A,,Mostly Cloudy,290,2012-10-31 08:53:00
5:53 AM,37.0,25.0,62,29.78,10.0,WNW,9.2,-,N/A,,Mostly Cloudy,290,2012-10-31 09:53:00
6:53 AM,35.1,26.1,70,29.79,10.0,WNW,6.9,-,N/A,,Scattered Clouds,300,2012-10-31 10:53:00
7:53 AM,34.0,25.0,70,29.79,10.0,WNW,8.1,-,N/A,,Clear,290,2012-10-31 11:53:00
8:53 AM,34.0,26.1,73,29.80,10.0,WNW,8.1,-,N/A,,Clear,290,2012-10-31 12:53:00
9:53 AM,36.0,26.1,67,29.81,10.0,WNW,10.4,19.6,N/A,,Clear,300,2012-10-31 13:53:00
10:53 AM,39.0,27.0,62,29.82,10.0,WNW,9.2,-,N/A,,Clear,290,2012-10-31 14:53:00
11:53 AM,42.1,28.0,58,29.82,10.0,West,15.0,21.9,N/A,,Clear,280,2012-10-31 15:53:00
12:53 PM,44.1,28.0,53,29.82,10.0,NW,9.2,19.6,N/A,,Clear,320,2012-10-31 16:53:00
1:53 PM,45.0,28.9,53,29.81,10.0,WNW,16.1,21.9,N/A,,Partly Cloudy,290,2012-10-31 17:53:00
3:53 PM,46.9,28.9,50,29.80,10.0,WNW,12.7,21.9,N/A,,Partly Cloudy,300,2012-10-31 19:53:00
4:53 PM,48.0,30.0,50,29.81,10.0,WNW,8.1,-,N/A,,Partly Cloudy,290,2012-10-31 20:53:00
5:53 PM,46.9,28.9,50,29.82,10.0,NW,6.9,16.1,N/A,,Partly Cloudy,310,2012-10-31 21:53:00
6:53 PM,46.9,30.0,52,29.84,10.0,WNW,9.2,-,N/A,,Overcast,300,2012-10-31 22:53:00
7:53 PM,46.0,30.9,56,29.86,10.0,WNW,6.9,-,N/A,,Overcast,300,2012-10-31 23:53:00
8:53 PM,46.0,30.9,56,29.86,10.0,WNW,10.4,-,N/A,,Overcast,300,2012-11-01 00:53:00
9:53 PM,45.0,30.9,58,29.88,10.0,WNW,8.1,-,N/A,,Overcast,300,2012-11-01 01:53:00
10:53 PM,45.0,30.0,56,29.88,10.0,WNW,9.2,-,N/A,,Overcast,290,2012-11-01 02:53:00
11:53 PM,41.0,28.9,62,29.87,10.0,West,6.9,-,N/A,,Clear,270,2012-11-01 03:53:00